Hourly Data Report for October 05, 2013

All times are specified in Local Standard Time (LST). Add 1 hour to adjust for Daylight Saving Time where and when it is observed.

FREDERICTON
NEW BRUNSWICK

45°52'08.000" N
66°32'14.000" W
20.70 m
8101505
71700
YFC

Download Data

Hourly Data (October 2013)
Hourly Data Report for October 5, 2013
Temp Definition
°C
Dew Point Temp Definition
°C
Rel Hum Definition
%
Wind Dir Definition
10's deg

Wind Spd Definition
km/h
Visibility Definition
km
Stn Press Definition
kPa
Hmdx Definition


Wind Chill Definition


Weather Definition


TIME
00:00 Legend Double Dagger 3.2 2.3 94 20 9 16.1 101.58     LegendNANA
01:00 Legend Double Dagger 2.5 1.8 95 22 5 16.1 101.60     LegendNANA
02:00 Legend Double Dagger 2.6 2.0 96 21 9 16.1 101.67     LegendNANA
03:00 Legend Double Dagger 1.6 0.9 95 21 5 16.1 101.65     LegendNANA
04:00 Legend Double Dagger 1.6 1.1 97 19 8 16.1 101.65     LegendNANA
05:00 Legend Double Dagger 0.5 -0.1 96 21 9 16.1 101.67     LegendNANA
06:00 Legend Double Dagger 1.3 0.7 96 26 5 16.1 101.67     LegendNANA
07:00 Legend Double Dagger 0.7 0.5 98 22 5 16.1 101.73     LegendNANA
08:00 Legend Double Dagger 5.1 3.2 88 19 5 16.1 101.76     LegendNANA
09:00 Legend Double Dagger 8.0 4.2 77 27 8 16.1 101.77     LegendNANA
10:00 Legend Double Dagger 10.8 3.7 61 32 11 16.1 101.74     LegendNANA
11:00 Legend Double Dagger 13.0 3.5 52 26 8 16.1 101.71     LegendNANA
12:00 Legend Double Dagger 13.2 5.0 57 24 13 16.1 101.66     LegendNANA
13:00 Legend Double Dagger 13.0 4.3 55 25 17 16.1 101.61     LegendNANA
14:00 Legend Double Dagger 13.7 4.4 53 28 15 16.1 101.58     LegendNANA
15:00 Legend Double Dagger 14.1 3.5 49 29 13 16.1 101.52     LegendNANA
16:00 Legend Double Dagger 14.6 4.5 50 25 9 16.1 101.48     LegendNANA
17:00 Legend Double Dagger 13.7 4.9 55 26 5 16.1 101.52     LegendNANA
18:00 Legend Double Dagger 10.3 5.9 74 25 8 16.1 101.52     LegendNANA
19:00 Legend Double Dagger 8.1 4.1 76   0 16.1 101.59     LegendNANA
20:00 Legend Double Dagger 6.1 4.1 87 20 4 16.1 101.64     LegendNANA
21:00 Legend Double Dagger 6.6 3.6 81 34 8 16.1 101.72     LegendNANA
22:00 Legend Double Dagger 7.3 2.7 73 33 5 16.1 101.81     LegendNANA
23:00 Legend Double Dagger 6.1 2.6 78 31 8 16.1 101.86     LegendNANA

Notes on Data Quality.

Legend

  • E = Estimated
  • M = Missing
  • NA = Not Available
  • ‡ = Partner data that is not subject to review by the National Climate Archives
Date modified: